Weather History for Kearney, NE

Change the Weather History Date:

Sunday, March 24, 2013

  Actual Average Record
Temperature  
Mean Temperature 27 °F 41 °F  
Max Temperature 36 °F 54 °F 82 °F (1910)
Min Temperature 18 °F 28 °F 3 °F (1965)
Degree Days  
Heating Degree Days 38 24  
Cooling Degree Days 0 0  
Moisture  
Dew Point 14 °F    
Average Humidity 63    
Maximum Humidity 84    
Minimum Humidity 41    
Precipitation  
Precipitation 0.00 in - 1.20 in (1909)
Sea Level Pressure  
Sea Level Pressure 30.12 in    
Wind  
Wind Speed 18 mph (NW)    
Max Wind Speed 27 mph    
Max Gust Speed 36 mph    
Visibility 10 miles    
Events      
T = Trace of Precipitation, MM = Missing Value Source: NWS Daily Summary

Daily Weather History Graph

Daily Weather History Graph

Search for Another Location

Airport:

Trip Planner

Search our weather history database for the weather conditions in past years. The results will help you decide how hot, cold, wet, or windy it might be!

Date:

Astronomy

Mar. 24, 2013 Rise Set
Actual Time 7:32 AM CDT 7:52 PM CDT
Civil Twilight 7:04 AM CDT 8:20 PM CDT
Nautical Twilight 6:32 AM CDT 8:52 PM CDT
Astronomical Twilight 5:59 AM CDT 9:25 PM CDT
Moon 5:21 PM CDT (3/24) 5:44 AM CDT (3/24)
Length of Visible Light 13h 15m
Length of Day
12h 20m
Waxing Gibbous, 92% of the Moon is Illuminated
Mar 24
Waxing Gibbous
Mar 27
Full
Apr 2
Last Quarter
Apr 10
New
Apr 18
First Quarter

Hourly Weather History & Observations

Time (CDT) Temp. Windchill Dew Point Humidity Pressure Visibility Wind Dir Wind Speed Gust Speed Precip Events Conditions
12:15 AM 24.8 °F 8.7 °F 15.8 °F 69% 30.13 in 10.0 mi NNW 26.5 mph 32.2 mph N/A   Overcast
12:35 AM 23.0 °F 6.6 °F 15.8 °F 74% 30.12 in 10.0 mi NNW 25.3 mph 31.1 mph N/A   Overcast
12:55 AM 23.0 °F 7.2 °F 15.8 °F 74% 30.12 in 10.0 mi NNW 23.0 mph 28.8 mph N/A   Overcast
1:15 AM 23.0 °F 7.6 °F 15.8 °F 74% 30.12 in 10.0 mi NNW 21.9 mph 32.2 mph N/A   Overcast
1:35 AM 23.0 °F 6.9 °F 15.8 °F 74% 30.12 in 10.0 mi NNW 24.2 mph 29.9 mph N/A   Overcast
1:55 AM 21.2 °F 5.6 °F 15.8 °F 80% 30.13 in 10.0 mi North 20.7 mph 28.8 mph N/A   Overcast
2:15 AM 21.2 °F 5.2 °F 15.8 °F 80% 30.14 in 10.0 mi NNW 21.9 mph 25.3 mph N/A   Overcast
2:35 AM 21.2 °F 6.8 °F 15.8 °F 80% 30.14 in 10.0 mi North 17.3 mph - N/A   Overcast
2:55 AM 21.2 °F 6.8 °F 15.8 °F 80% 30.13 in 10.0 mi North 17.3 mph - N/A   Overcast
3:15 AM 21.2 °F 6.8 °F 15.8 °F 80% 30.13 in 10.0 mi North 17.3 mph 26.5 mph N/A   Mostly Cloudy
3:35 AM 21.2 °F 6.0 °F 15.8 °F 80% 30.13 in 10.0 mi NNW 19.6 mph - N/A   Mostly Cloudy
3:55 AM 21.2 °F 7.8 °F 15.8 °F 80% 30.12 in 10.0 mi NNW 15.0 mph - N/A   Overcast
4:15 AM 21.2 °F 7.3 °F 15.8 °F 80% 30.11 in 10.0 mi NNW 16.1 mph - N/A   Overcast
4:35 AM 19.4 °F 5.0 °F 15.8 °F 86% 30.12 in 10.0 mi NNW 16.1 mph - N/A   Mostly Cloudy
4:55 AM 19.4 °F 5.5 °F 14.0 °F 80% 30.11 in 10.0 mi NNW 15.0 mph 19.6 mph N/A   Partly Cloudy
5:15 AM 19.4 °F 5.5 °F 14.0 °F 80% 30.11 in 10.0 mi NW 15.0 mph - N/A   Clear
5:35 AM 19.4 °F 7.9 °F 12.2 °F 74% 30.12 in 10.0 mi NNW 10.4 mph 19.6 mph N/A   Clear
5:55 AM 17.6 °F 6.4 °F 14.0 °F 86% 30.13 in 10.0 mi NW 9.2 mph - N/A   Clear
6:15 AM 17.6 °F 8.2 °F 12.2 °F 79% 30.13 in 10.0 mi NNW 6.9 mph - N/A   Clear
6:35 AM 17.6 °F 7.3 °F 12.2 °F 79% 30.13 in 10.0 mi NNW 8.1 mph - N/A   Clear
6:55 AM 17.6 °F 7.3 °F 12.2 °F 79% 30.14 in 10.0 mi NW 8.1 mph - N/A   Clear
7:15 AM 17.6 °F 5.7 °F 12.2 °F 79% 30.13 in 10.0 mi NW 10.4 mph - N/A   Clear
7:35 AM 17.6 °F 5.0 °F 12.2 °F 79% 30.13 in 10.0 mi NW 11.5 mph - N/A   Clear
7:55 AM 17.6 °F 6.4 °F 12.2 °F 79% 30.13 in 10.0 mi NW 9.2 mph - N/A   Clear
8:15 AM 17.6 °F 5.0 °F 10.4 °F 73% 30.13 in 10.0 mi NW 11.5 mph - N/A   Clear
8:35 AM 17.6 °F 5.0 °F 10.4 °F 73% 30.13 in 10.0 mi NW 11.5 mph - N/A   Clear
8:55 AM 17.6 °F 3.2 °F 10.4 °F 73% 30.13 in 10.0 mi NW 15.0 mph - N/A   Clear
9:15 AM 19.4 °F 5.5 °F 12.2 °F 74% 30.14 in 10.0 mi NW 15.0 mph - N/A   Clear
9:35 AM 19.4 °F 4.1 °F 12.2 °F 74% 30.14 in 10.0 mi NW 18.4 mph - N/A   Clear
9:55 AM 19.4 °F 4.1 °F 12.2 °F 74% 30.14 in 10.0 mi NW 18.4 mph 24.2 mph N/A   Clear
10:15 AM 21.2 °F 6.8 °F 14.0 °F 74% 30.14 in 10.0 mi NNW 17.3 mph 24.2 mph N/A   Clear
10:35 AM 21.2 °F 4.9 °F 12.2 °F 68% 30.14 in 10.0 mi NW 23.0 mph 27.6 mph N/A   Clear
10:55 AM 23.0 °F 7.6 °F 12.2 °F 63% 30.13 in 10.0 mi NW 21.9 mph - N/A   Clear
11:15 AM 23.0 °F 8.7 °F 12.2 °F 63% 30.13 in 10.0 mi NW 18.4 mph 28.8 mph N/A   Clear
11:35 AM 24.8 °F 10.0 °F 14.0 °F 64% 30.13 in 10.0 mi NW 21.9 mph 28.8 mph N/A   Clear
11:55 AM 26.6 °F 11.1 °F 14.0 °F 59% 30.13 in 10.0 mi NW 26.5 mph 31.1 mph N/A   Clear
12:15 PM 26.6 °F 12.4 °F 15.8 °F 64% 30.13 in 10.0 mi NNW 21.9 mph 28.8 mph N/A   Clear
12:35 PM 26.6 °F 13.1 °F 15.8 °F 64% 30.14 in 10.0 mi NW 19.6 mph - N/A   Clear
12:55 PM 26.6 °F 13.1 °F 15.8 °F 64% 30.13 in 10.0 mi NW 19.6 mph 28.8 mph N/A   Partly Cloudy
1:15 PM 28.4 °F 14.1 °F 15.8 °F 59% 30.12 in 10.0 mi NW 24.2 mph 35.7 mph N/A   Scattered Clouds
1:35 PM 28.4 °F 13.0 °F 15.8 °F 59% 30.11 in 10.0 mi NW 28.8 mph 34.5 mph N/A   Partly Cloudy
1:55 PM 30.2 °F 16.2 °F 17.6 °F 60% 30.11 in 10.0 mi NW 25.3 mph 32.2 mph N/A   Scattered Clouds
2:15 PM 30.2 °F 15.7 °F 15.8 °F 55% 30.10 in 10.0 mi NW 27.6 mph 33.4 mph N/A   Mostly Cloudy
2:35 PM 30.2 °F 16.5 °F 15.8 °F 55% 30.09 in 10.0 mi WNW 24.2 mph 32.2 mph N/A   Mostly Cloudy
2:55 PM 33.8 °F 20.8 °F 17.6 °F 52% 30.09 in 10.0 mi NW 26.5 mph 33.4 mph N/A   Mostly Cloudy
3:15 PM 32.0 °F 18.4 °F 15.8 °F 51% 30.08 in 10.0 mi NW 26.5 mph 29.9 mph N/A   Mostly Cloudy
3:35 PM 32.0 °F 19.5 °F 15.8 °F 51% 30.07 in 10.0 mi NW 21.9 mph 29.9 mph N/A   Mostly Cloudy
3:55 PM 33.8 °F 21.9 °F 15.8 °F 48% 30.07 in 10.0 mi WNW 21.9 mph 32.2 mph N/A   Mostly Cloudy
4:15 PM 33.8 °F 20.8 °F 14.0 °F 44% 30.06 in 10.0 mi NW 26.5 mph 34.5 mph N/A   Mostly Cloudy
4:35 PM 33.8 °F 22.2 °F 15.8 °F 48% 30.07 in 10.0 mi NW 20.7 mph 31.1 mph N/A   Mostly Cloudy
4:55 PM 33.8 °F 21.6 °F 12.2 °F 41% 30.07 in 10.0 mi NW 23.0 mph 35.7 mph N/A   Mostly Cloudy
5:15 PM 33.8 °F 21.6 °F 10.4 °F 38% 30.07 in 10.0 mi NW 23.0 mph 31.1 mph N/A   Mostly Cloudy
5:35 PM 33.8 °F 21.9 °F 12.2 °F 41% 30.07 in 10.0 mi NNW 21.9 mph 28.8 mph N/A   Mostly Cloudy
5:55 PM 33.8 °F 21.6 °F 12.2 °F 41% 30.07 in 10.0 mi NW 23.0 mph 31.1 mph N/A   Mostly Cloudy
6:15 PM 33.8 °F 21.0 °F 12.2 °F 41% 30.08 in 10.0 mi North 25.3 mph - N/A   Mostly Cloudy
6:35 PM 30.2 °F 16.8 °F 14.0 °F 51% 30.09 in 10.0 mi NNW 23.0 mph 27.6 mph N/A   Mostly Cloudy
6:55 PM 28.4 °F 15.4 °F 14.0 °F 55% 30.10 in 10.0 mi NNW 19.6 mph 29.9 mph N/A   Scattered Clouds
7:15 PM 28.4 °F 15.1 °F 15.8 °F 59% 30.11 in 10.0 mi NW 20.7 mph 25.3 mph N/A   Clear
7:35 PM 26.6 °F 12.4 °F 14.0 °F 59% 30.11 in 10.0 mi NNW 21.9 mph 29.9 mph N/A   Clear
7:55 PM 26.6 °F 13.4 °F 12.2 °F 55% 30.11 in 10.0 mi NNW 18.4 mph 29.9 mph N/A   Clear
8:15 PM 24.8 °F 11.5 °F 12.2 °F 59% 30.12 in 10.0 mi NW 17.3 mph 26.5 mph N/A   Clear
8:35 PM 24.8 °F 11.5 °F 12.2 °F 59% 30.13 in 10.0 mi NW 17.3 mph - N/A   Clear
8:55 PM 24.8 °F 11.9 °F 12.2 °F 59% 30.14 in 10.0 mi NW 16.1 mph - N/A   Clear
9:15 PM 23.0 °F 9.6 °F 12.2 °F 63% 30.14 in 10.0 mi NW 16.1 mph 19.6 mph N/A   Clear
9:35 PM 23.0 °F 9.6 °F 15.8 °F 74% 30.15 in 10.0 mi NW 16.1 mph 21.9 mph N/A   Clear
9:55 PM 23.0 °F 11.7 °F 15.8 °F 74% 30.16 in 10.0 mi WNW 11.5 mph - N/A   Clear
10:15 PM 21.2 °F 7.8 °F 15.8 °F 80% 30.17 in 10.0 mi NW 15.0 mph - N/A   Scattered Clouds
10:35 PM 21.2 °F 9.5 °F 15.8 °F 80% 30.17 in 10.0 mi NW 11.5 mph - N/A   Scattered Clouds
10:55 PM 21.2 °F 9.5 °F 15.8 °F 80% 30.17 in 10.0 mi WNW 11.5 mph - N/A   Clear
11:15 PM 21.2 °F 9.5 °F 15.8 °F 80% 30.18 in 10.0 mi NW 11.5 mph - N/A   Clear
11:35 PM 19.4 °F 7.9 °F 15.8 °F 86% 30.18 in 10.0 mi NW 10.4 mph - N/A   Clear
11:55 PM 19.4 °F 7.2 °F 15.8 °F 86% 30.18 in 10.0 mi NW 11.5 mph - N/A   Clear